Lexington Weather

Lexington, Massachusetts, USA

27°F
2/26/2021 8:24am 
  • Lexington Conditions: Clear
  • Temperature: 26.8°F / -2.9°CWarmer 2.2°F than last hour.
  • Dew Point: 16.5°FIncreased 1.2°Fsince last hour.
  • Relative Humidity: 65%Decreased 2.0% since last hour.
  • Wind: Wind from NNW NNW 2 mph, 10-min avg: 1 mph, gust: 3 mph
  • Barometer: 30.37 inRising 0.03  inHg/hr Rising Slowly
  • Visibility: 10 miles
  • Snow Today: 0.0 in
  •   

Regional Weather Roundup
for Boston / Norton, MA

        
000
ASUS41 KBOX 252105
RWRBOX

REGIONAL WEATHER ROUNDUP
NATIONAL WEATHER SERVICE BOSTON/NORTON MA
400 PM EST THU FEB 25 2021

NOTE:  "FAIR" INDICATES FEW OR NO CLOUDS BELOW 12,000 FEET WITH NO 
SIGNIFICANT WEATHER AND/OR OBSTRUCTIONS TO VISIBILITY.

MAZALL-252200-
EASTERN MASSACHUSETTS
  
CITY           SKY/WX    TMP DP  RH WIND       PRES   REMARKS
BOSTON         MOSUNNY   43  14  31 W23G29    30.01R                  
BEVERLY        MOSUNNY   44  13  28 W16G24    29.99R                  
LAWRENCE       SUNNY     42  15  33 W17G28    30.00R                  
BEDFORD        MOSUNNY   42  17  36 W23G30    30.00R                  
BLUE HILL        N/A     40  17  39 W21G33    29.98R WCI  30          
NORWOOD        SUNNY     45  17  32 W17G29    30.02R                  
MARSHFIELD     SUNNY     46  16  29 W16G26    30.00R                  
PLYMOUTH       SUNNY     44  16  32 W15G25    30.01R                  
TAUNTON        SUNNY     46  14  27 W14G25    30.03R                  
NEW BEDFORD    SUNNY     47  13  25 W14G25    30.03R                  
$$

MAZALL-252200-
CAPE COD AND THE ISLANDS
  
CITY           SKY/WX    TMP DP  RH WIND       PRES   REMARKS
FALMOUTH       SUNNY     46  14  27 NW20      30.01R                  
HYANNIS        SUNNY     48  15  26 W10G23    29.98R                  
CHATHAM        SUNNY     46  15  28 NW10G20   30.01R                  
PROVINCETOWN   SUNNY     43  27  53 W9        30.01R                  
NANTUCKET      SUNNY     43  28  55 W13       30.03R                  
MARTHAS VNYRD  SUNNY     46  20  35 W10G23    30.04R                  
$$
 
MAZALL-252200-
CENTRAL AND WESTERN MASSACHUSETTS
  
CITY           SKY/WX    TMP DP  RH WIND       PRES   REMARKS
WORCESTER      SUNNY     39  15  37 W24G31    30.01R WCI  28          
FITCHBURG      SUNNY     40  17  39 W16G32    30.02R WCI  31          
ORANGE         MOSUNNY   38  17  42 W14G28    30.05R WCI  30          
SPRINGFIELD    MOSUNNY   42  17  36 NW17G23   30.06R                  
WESTFIELD      SUNNY     41  19  41 W17G26    30.06R                  
NORTH ADAMS    MOSUNNY   37  17  44 W21G33    30.07R WCI  26          
PITTSFIELD     SUNNY     34  15  46 W17G28    30.05R WCI  23          
$$
 
RIZALL-252200-
RHODE ISLAND
  
CITY           SKY/WX    TMP DP  RH WIND       PRES   REMARKS
PROVIDENCE     MOSUNNY   45  15  30 NW21G29   30.04R                  
NEWPORT        SUNNY     44  17  33 W17G24    30.04R                  
BLOCK ISLAND   SUNNY     44  22  41 NW8G16    30.08R                  
SMITHFIELD     SUNNY     42  17  36 W16G26    30.03R                  
WESTERLY       SUNNY     45  14  28 NW9       30.06R                  
$$
 
CTZALL-252200-
CONNECTICUT
  
CITY           SKY/WX    TMP DP  RH WIND       PRES   REMARKS
BRADLEY INTL   MOSUNNY   44  19  36 NW18G24   30.07R                  
HARTFORD       MOSUNNY   47  15  27 NW12      30.08R                  
BRIDGEPORT     SUNNY     48  18  30 NW13G24   30.10R                  
DANBURY        SUNNY     45  16  31 W13G20    30.10R                  
GROTON         SUNNY     47  17  30 NW15      30.07R                  
NEW HAVEN      SUNNY     47  21  35 NW13G23   30.09R                  
CHESTER        FAIR      46  12  25 NW8G16    30.07R                  
MERIDEN        SUNNY     45  14  28 NW9       30.08R                  
WILLIMANTIC    SUNNY     44  16  32 W9G20     30.07R                  
OXFORD         SUNNY     43  17  35 W9        30.08R                  
$$

MEZ002-015-021-024-NHZ003-005-008-011-012-014-VTZ005-008-252200-
NORTHERN NEW ENGLAND
  
CITY           SKY/WX    TMP DP  RH WIND       PRES   REMARKS
PORTLAND ME    MOSUNNY   37  13  37 W21G29    29.95R WCI  26          
BANGOR ME      MOSUNNY   30   8  39 NW15G31   29.88R WCI  19          
CONCORD NH     SUNNY     38  15  39 W17G28    29.98R WCI  28          
MANCHESTER NH  MOSUNNY   43  12  28 W12G21    29.97R                  
NASHUA NH      MOSUNNY   42  13  30 W21G31    30.00R                  
PORTSMOUTH NH  MOSUNNY   41   8  25 W15G31    29.95R                  
JAFFREY NH     MOSUNNY   37  15  40 W13G20    29.99R WCI  29          
KEENE NH       CLOUDY    39  16  39 W15G23    30.02R WCI  31          
BURLINGTON VT  MOSUNNY   31  10  41 NW22      30.10R WCI  18          
MT. WASHINGTON BLWGSNOW   3   3 100 W66G82      N/A  VSB 1/16WCI -29  
$$

NYZ052-076-252200-
EASTERN NEW YORK
  
CITY           SKY/WX    TMP DP  RH WIND       PRES   REMARKS
ALBANY         MOSUNNY   36  17  46 W20G30    30.12R WCI  25          
NEW YORK CITY  MOSUNNY   48  18  30 NW13      30.12S                  
$$
 
ANZALL-252200-
MARINE OBSERVATIONS
  
STATION/POSITION TIME  TEMP    WIND        PRES    VSBY  WAVE
                       AIR SEA DIR/SP/G                  HT/PER
                 (UTC) (F)     (DEG/KT/KT) (MB)    (MI)  (FT/S)
BOSTON BUOY      2050   41 39  280/ 19/ 25 1016.2R         3/ 4
BUZZARDS BAY     2000          280/ 17/ 18 1018.1R
NANTUCKET SOUND  2050      37  270/ 16/ 19   N/A           2/ 4
MASS BAY-STELLWA 2004   42     280/ 17/ 21 1013.8R  1 7/8  3/ 4
ISLE OF SHOALS   2000   41     290/ 23/ 26 1013.4R
S OF BLOCK IS    2026      40                N/A           4/ 8
$$

......................KEY.........................
  SKY/WX - SKY CONDITION/PRESENT WEATHER
  TMP    - TEMPERATURE IN FAHRENHEIT
  DWPT   - DEWPOINT IN FAHRENHEIT
  RH     - RELATIVE HUMIDITY IN PERCENT
  WIND   - DIRECTION AND SPEED IN MPH
  PRES   - MEAN SEA LEVEL PRESSURE IN INCHES OF HG
  WCI    - WIND CHILL INDEX
  VSB    - VISIBILITY IN MILES
  HX     - HEAT INDEX
  TC     - TEMPERATURE IN CELSIUS
  VRB    - VARIABLE WIND DIRECTION
  N/A    - NOT AVAILABLE
  
      

Other recent Regional Weather Roundups

Fri Feb 26, 8:04am

Fri Feb 26, 7:04am

Fri Feb 26, 6:04am

Fri Feb 26, 5:04am

Fri Feb 26, 4:04am

Fri Feb 26, 3:04am

Fri Feb 26, 2:04am

Fri Feb 26, 1:04am

Fri Feb 26, 12:04am

Thu Feb 25, 11:04pm

Thu Feb 25, 10:04pm

Thu Feb 25, 9:04pm

Thu Feb 25, 8:05pm

Thu Feb 25, 7:05pm

Thu Feb 25, 6:04pm

Thu Feb 25, 5:04pm

Thu Feb 25, 3:05pm

Thu Feb 25, 2:04pm

Thu Feb 25, 1:04pm

Thu Feb 25, 12:05pm

Thu Feb 25, 11:04am

Thu Feb 25, 10:04am

Thu Feb 25, 9:04am

Thu Feb 25, 8:04am

Thu Feb 25, 7:04am

Thu Feb 25, 6:04am

Thu Feb 25, 5:04am

Thu Feb 25, 4:04am

Thu Feb 25, 3:04am

Thu Feb 25, 2:04am

Thu Feb 25, 1:04am

Thu Feb 25, 12:04am

Wed Feb 24, 11:04pm

Wed Feb 24, 10:05pm

Wed Feb 24, 9:04pm

Wed Feb 24, 8:04pm

Wed Feb 24, 7:04pm

Wed Feb 24, 6:04pm

Wed Feb 24, 5:04pm

Wed Feb 24, 4:04pm

Wed Feb 24, 3:04pm

Wed Feb 24, 2:05pm

Wed Feb 24, 1:05pm

Wed Feb 24, 12:05pm

Wed Feb 24, 11:04am

Wed Feb 24, 10:04am

Wed Feb 24, 9:04am

Wed Feb 24, 8:04am

Wed Feb 24, 7:04am

Wed Feb 24, 6:04am

Wed Feb 24, 5:04am

Wed Feb 24, 4:04am

Wed Feb 24, 3:04am

Wed Feb 24, 2:04am

Wed Feb 24, 1:04am

Wed Feb 24, 12:04am

Tue Feb 23, 11:04pm

Tue Feb 23, 10:04pm

Tue Feb 23, 9:04pm

Tue Feb 23, 8:05pm

Tue Feb 23, 7:04pm

Tue Feb 23, 6:04pm

Tue Feb 23, 5:04pm

Tue Feb 23, 4:05pm

Tue Feb 23, 3:04pm

Tue Feb 23, 2:04pm

Tue Feb 23, 1:04pm

Tue Feb 23, 12:04pm

Tue Feb 23, 11:04am

Tue Feb 23, 10:04am

Tue Feb 23, 9:04am

Tue Feb 23, 7:04am

Tue Feb 23, 6:04am

Tue Feb 23, 5:04am

Tue Feb 23, 4:04am

Tue Feb 23, 3:04am

Tue Feb 23, 2:04am

Tue Feb 23, 1:04am

Tue Feb 23, 12:04am

Mon Feb 22, 11:04pm

Mon Feb 22, 10:04pm

Mon Feb 22, 9:04pm

Mon Feb 22, 8:04pm

Mon Feb 22, 7:04pm

Mon Feb 22, 6:04pm

Mon Feb 22, 5:04pm

Mon Feb 22, 4:05pm

Mon Feb 22, 3:04pm

Mon Feb 22, 2:05pm

Mon Feb 22, 1:04pm

Mon Feb 22, 12:05pm

Mon Feb 22, 11:04am

Mon Feb 22, 10:04am

Mon Feb 22, 9:05am

Mon Feb 22, 8:04am

Mon Feb 22, 7:04am

Mon Feb 22, 6:04am

Mon Feb 22, 5:04am

Mon Feb 22, 4:04am

Mon Feb 22, 3:04am

Mon Feb 22, 2:04am

Mon Feb 22, 1:04am

Mon Feb 22, 12:04am

Sun Feb 21, 11:04pm

Sun Feb 21, 10:05pm

Sun Feb 21, 9:04pm

Sun Feb 21, 8:04pm

Sun Feb 21, 7:04pm

Sun Feb 21, 6:04pm

Sun Feb 21, 5:04pm

Sun Feb 21, 4:05pm

Sun Feb 21, 3:04pm

Sun Feb 21, 2:04pm

Sun Feb 21, 1:05pm

Sun Feb 21, 12:05pm

Sun Feb 21, 11:04am

Sun Feb 21, 10:05am

Sun Feb 21, 9:04am

Sun Feb 21, 8:04am

Sun Feb 21, 7:04am

Sun Feb 21, 6:04am

Sun Feb 21, 5:04am

Sun Feb 21, 4:04am

Sun Feb 21, 3:04am

Sun Feb 21, 2:04am

Sun Feb 21, 1:04am

Sun Feb 21, 12:04am

Sat Feb 20, 11:04pm

Sat Feb 20, 10:04pm

Sat Feb 20, 9:04pm

Sat Feb 20, 8:04pm

Sat Feb 20, 7:04pm

Sat Feb 20, 6:04pm

Sat Feb 20, 5:04pm

Sat Feb 20, 4:05pm

Sat Feb 20, 3:04pm

Sat Feb 20, 2:04pm

Sat Feb 20, 1:05pm

Sat Feb 20, 12:05pm

Sat Feb 20, 11:04am

Sat Feb 20, 10:05am

Sat Feb 20, 9:04am

Sat Feb 20, 8:04am

Sat Feb 20, 7:04am

Sat Feb 20, 6:04am

Sat Feb 20, 5:04am

Sat Feb 20, 4:04am

Sat Feb 20, 3:04am

Sat Feb 20, 2:04am

Sat Feb 20, 1:04am

Sat Feb 20, 12:04am

Fri Feb 19, 11:04pm

Fri Feb 19, 10:05pm

Fri Feb 19, 9:04pm

Fri Feb 19, 8:04pm

Fri Feb 19, 7:04pm

Fri Feb 19, 6:04pm

Fri Feb 19, 5:04pm

Fri Feb 19, 4:05pm

Fri Feb 19, 3:04pm

Fri Feb 19, 2:04pm

Fri Feb 19, 1:05pm

Fri Feb 19, 12:05pm

Fri Feb 19, 11:04am

Fri Feb 19, 10:04am

Fri Feb 19, 9:04am

Meta data:

ID: aa40b78d-994e-417f-bd91-1e0cda8cbd82
Link: https://api.weather.gov/products/aa40b78d-994e-417f-bd91-1e0cda8cbd82